Lid_Strength_Index
2 2 2 2 2 2 2 2 2 2 2 2 3 3 3 3 3 4 4 3 3 4 4 4 2 3 3 3 3 4 4 5 7 5 5 4 5 4 2 2 2 3 2
1 1 1 1 1 2 1 1 1 2 2 1 1 2 2 1 2 2 2 3 4 5 5 6 5 5 6 6 6 7 7 6 6 7 5 4 3 3 2 2 1 1 4
1 1 1 1 2 2 2 2 2 2 2 3 3 4 4 2 2 1 2 3 4 6 6 7 7 7 8 8 8 8 7 7 7 7 5 3 3 3 5 5 4 4 2
1 1 2 2 2 2 2 2 3 3 4 4 4 5 6 6 4 4 3 4 5 5 5 6 6 7 8 8 7 7 7 7 7 7 7 6 6 5 5 6 6 5 5
1 2 1 1 1 2 2 3 4 5 5 5 5 5 6 6 5 5 5 5 5 5 6 7 7 5 3 3 5 6 6 6 6 7 7 7 7 7 6 6 6 6 5
2 2 2 2 2 2 3 3 4 4 5 5 5 6 8 6 6 4 4 6 6 5 6 7 6 4 4 2 2 2 3 6 6 6 6 7 7 6 5 5 6 6 7
3 3 3 3 3 3 3 3 5 5 5 6 7 8 10 8 7 6 4 5 4 4 5 5 5 5 5 4 2 2 2 2 2 6 7 6 7 6 6 6 6 6 6
3 3 3 3 2 2 3 2 3 4 6 6 6 6 7 7 6 5 3 4 4 4 4 5 6 6 6 5 4 5 4 4 3 3 4 4 5 5 5 5 5 5 5
3 2 2 2 2 2 1 1 3 3 4 5 6 6 7 7 5 5 3 4 4 5 5 5 6 7 5 5 5 5 6 5 2 2 2 3 3 3 4 5 5 6 5
2 2 1 1 1 1 1 2 3 3 4 3 4 4 4 6 6 6 4 2 5 5 6 7 4 6 6 6 7 7 7 5 5 4 4 3 3 3 2 4 4 6 4
2 1 1 1 1 1 1 2 3 3 2 3 3 3 3 5 6 6 5 6 5 4 4 5 5 6 6 6 6 7 6 6 4 3 3 3 4 4 4 3 3 4 4
1 1 1 2 1 1 2 2 2 3 3 4 3 2 3 3 4 5 6 6 5 5 5 4 5 6 6 6 6 6 6 5 3 4 6 5 5 4 4 3 3 3 2
3 3 1 1 1 1 2 3 2 2 3 2 2 2 2 3 4 5 5 5 4 6 5 5 5 6 6 5 6 6 6 3 4 6 6 6 5 4 4 3 3 3 2
3 2 1 2 2 2 2 2 2 2 2 2 2 3 3 5 5 5 5 5 5 6 6 6 4 5 5 4 5 4 5 3 4 5 6 5 5 4 4 4 4 4 5
2 2 2 1 2 3 5 4 4 6 5 6 5 6 5 6 6 7 7 7 8 8 7 4 5 6 6 6 5 4 5 5 5 5 5 5 6 5 5 2 4 5 6
2 2 2 2 2 3 4 7 7 7 7 7 7 6 6 7 7 8 8 8 9 8 6 5 7 8 6 6 5 5 6 5 5 4 5 5 5 6 5 4 4 5 6
3 3 4 3 2 2 3 4 6 7 7 7 7 7 7 8 8 8 8 8 7 6 5 6 8 7 6 6 5 5 5 5 5 5 5 5 5 5 5 5 5 5 6
2 4 4 2 3 4 3 2 2 5 6 6 7 7 8 8 8 8 8 7 6 6 7 8 8 6 5 5 5 5 5 4 4 4 6 5 5 5 4 5 4 4 6
4 4 2 3 4 4 4 3 4 4 4 5 7 8 7 8 8 8 8 7 8 8 8 8 7 6 5 6 6 5 5 5 6 5 4 5 4 4 5 4 4 6 7
3 4 4 3 4 4 4 3 3 3 4 5 7 8 7 7 8 7 7 6 7 7 8 7 6 5 6 6 6 5 5 7 7 7 6 6 4 3 3 3 3 3 6
3 4 4 4 3 3 2 3 5 5 6 7 8 8 11 8 7 7 8 8 8 8 7 6 5 7 7 7 7 7 7 8 8 8 7 6 6 4 3 2 2 2 3
2 4 5 3 2 3 5 5 6 7 6 7 8 8 11 8 7 7 7 7 7 7 7 6 6 7 7 7 7 8 9 9 9 9 8 7 6 4 4 3 2 2 3
2 2 2 4 6 6 6 6 7 7 7 6 7 7 7 7 7 7 6 6 7 7 6 6 6 6 6 7 8 10 11 11 11 10 9 9 7 6 4 4 3 3 4
4 4 4 5 5 6 6 7 8 8 7 6 6 6 7 6 6 6 6 6 6 6 5 6 6 6 7 8 9 10 11 12 12 10 10 9 7 6 5 4 5 4 3
4 4 4 5 5 6 6 6 7 7 6 6 6 6 6 6 6 6 6 6 6 6 6 6 6 7 8 9 9 10 12 13 12 12 10 9 8 7 5 5 4 3 3
4 3 4 5 5 5 6 6 6 6 6 6 6 6 6 6 6 6 6 6 6 6 6 7 7 7 8 9 9 12 12 12 12 12 11 8 6 6 5 6 6 6 5